{"data":{"norad_id":68631,"intl_designator":"2026-074E","name":"STP-S29A OBJECT E","alt_names":[],"object_type":"PAYLOAD","status":"ACTIVE","operator":null,"country":"US","launch_date":"2026-04-07","launch_site_code":"AFWTR","launch_vehicle":null,"mission":null,"orbit_class":"UNKNOWN","rcs_meters":null,"size_class":null,"mass_kg":null,"dimensions":null,"purposes":[],"wikipedia_slug":null,"has_3d_model":false,"image_url":null,"decayed_at":null,"tle_current":{"epoch":"2026-05-24T18:05:53.645568Z","epoch_age_seconds":92364,"freshness":"FRESH","line1":"1 68631U 26074E   26144.75409312  .00003689  00000+0  16011-3 0  9998","line2":"2 68631  60.0210 268.0701 0024256   7.9671 352.1790 15.24325944  7214","mean_motion":15.24325944,"eccentricity":0.0024256,"inclination_deg":60.021,"raan_deg":268.0701,"arg_perigee_deg":7.9671,"mean_anomaly_deg":352.179,"bstar":0.00016011,"rev_number":721,"period_min":94.467984729124,"perigee_km":476.14407045605,"apogee_km":509.47640970714,"semimajor_km":6870.9472400816,"source":"CELESTRAK","updated_at":"2026-05-25T13:38:07.987929Z"}}}